Back to catalog

STARLINK-32414

AliveCommunicationsVLEO
NORAD 61667·PAYLOAD·🇺🇸 United States

Launched Oct 26, 2024 from Cape Canaveral Space Force Station

Loading…

Next Passes (next 24 hours)

TLE

FreshSource: CelesTrak SupGP

Epoch: Sep 14, 2026, 21:24 UTC

1 61667C 24193G   26257.89215278  .00029343  00000+0  86737-3 0  2570
2 61667  53.1586 291.6977 0001132  82.5467 190.4222 15.34360253    19

Track STARLINK-32414 in real time with AllMySat

Download on the App Store